GW5968 Weather Reports


Display with metric or nautical units.
time (UTC)temp
F
wind
direction
speed
MPH
gust
MPH
rain 1hr
in
rain 24hr
in
rain mn
in
humidity
%
barometer
mb
20260507064536 60 55 0.0 2.0 0.00 0.00 0.00 82 1017.0
20260507063028 60 86 0.0 3.0 0.00 0.00 0.00 83 1017.0
20260507061529 60 71 0.0 3.0 0.00 0.00 0.00 82 1017.0
20260507060019 60 51 0.0 4.0 0.00 0.00 0.00 82 1017.2
20260507054506 61 136 0.0 5.0 0.00 0.00 0.00 82 1017.2
20260507053012 61 153 0.0 3.0 0.00 0.00 0.00 80 1017.1
20260507051518 61 94 0.0 3.0 0.00 0.00 0.00 80 1016.8
20260507050032 62 100 0.0 2.0 0.00 0.00 0.00 79 1016.7
20260507044518 62 106 0.0 3.0 0.00 0.00 0.00 77 1016.6
20260507043008 62 60 0.0 2.0 0.00 0.00 0.00 78 1016.6
20260507041512 62 65 0.0 2.0 0.00 0.00 0.00 78 1016.5
20260507040024 62 74 0.0 2.0 0.00 0.00 0.00 77 1016.3
20260507034532 62 88 0.0 3.0 0.00 0.00 0.00 76 1016.2
20260507033022 62 95 0.0 2.0 0.00 0.00 0.00 76 1016.1
20260507031513 63 71 0.0 2.0 0.00 0.00 0.00 76 1015.9
20260507030019 62 178 0.0 2.0 0.00 0.00 0.00 79 1015.9
20260507024521 62 180 0.0 3.0 0.00 0.00 0.00 79 1015.8
20260507023024 63 196 1.0 3.0 0.00 0.00 0.00 78 1015.7
20260507021511 63 163 1.0 4.0 0.00 0.00 0.00 77 1015.7
20260507020014 64 84 0.0 3.0 0.00 0.00 0.00 75 1015.9
20260507014524 65 134 1.0 4.0 0.00 0.00 0.00 72 1016.1
20260507013023 66 64 0.0 4.0 0.00 0.00 0.00 71 1016.1
20260507011527 66 35 1.0 3.0 0.00 0.00 0.00 70 1016.1
20260507010027 67 30 1.0 3.0 0.00 0.00 0.00 69 1016.0
20260507004520 68 97 1.0 4.0 0.00 0.00 0.00 68 1016.1
20260507003022 68 55 2.0 5.0 0.00 0.00 0.00 67 1016.2
20260507001529 69 69 2.0 6.0 0.00 0.00 0.00 68 1016.1
20260507000029 70 30 3.0 8.0 0.00 0.00 0.00 62 1016.1
20260506234534 72 237 1.0 6.0 0.00 0.00 0.00 56 1016.0
20260506233028 72 286 2.0 4.0 0.00 0.00 0.00 53 1016.1
20260506231526 70 332 1.0 5.0 0.00 0.00 0.00 54 1016.0
20260506230024 71 246 3.0 6.0 0.00 0.00 0.00 53 1016.3
20260506224528 70 180 2.0 6.0 0.00 0.00 0.00 56 1016.5
20260506223021 69 238 1.0 4.0 0.00 0.00 0.00 58 1016.9
20260506221524 69 230 2.0 7.0 0.00 0.00 0.00 57 1017.3
20260506220033 70 180 2.0 7.0 0.00 0.00 0.00 57 1017.5
20260506214527 69 237 3.0 7.0 0.00 0.00 0.00 59 1017.8
20260506213014 69 95 2.0 6.0 0.00 0.00 0.00 59 1017.9
20260506211520 70 49 1.0 4.0 0.00 0.00 0.00 59 1018.2
20260506210026 68 99 1.0 8.0 0.00 0.00 0.00 61 1018.3
20260506204530 67 140 2.0 6.0 0.00 0.00 0.00 64 1018.3
20260506203028 67 82 2.0 8.0 0.00 0.00 0.00 64 1018.4
20260506201519 67 155 2.0 5.0 0.00 0.00 0.00 65 1018.4
20260506200029 66 211 2.0 6.0 0.00 0.00 0.00 65 1018.6
20260506194533 66 360 2.0 7.0 0.00 0.00 0.00 62 1018.7
20260506193026 66 174 3.0 7.0 0.00 0.00 0.00 61 1018.7
20260506191515 66 185 2.0 8.0 0.00 0.00 0.00 63 1018.8
20260506190022 66 159 2.0 7.0 0.00 0.00 0.00 64 1018.8
20260506184503 66 183 1.0 5.0 0.00 0.00 0.00 65 1018.9
20260506183007 65 142 1.0 5.0 0.00 0.00 0.00 67 1018.9
20260506181514 66 61 2.0 7.0 0.00 0.00 0.00 68 1019.1
20260506180018 65 126 1.0 4.0 0.00 0.00 0.00 70 1019.2
20260506174521 64 173 2.0 6.0 0.00 0.00 0.00 71 1019.2
20260506173008 63 152 2.0 5.0 0.00 0.00 0.00 74 1019.1
20260506171515 63 179 3.0 7.0 0.00 0.00 0.00 73 1019.2
20260506170016 63 162 2.0 6.0 0.00 0.00 0.00 74 1019.1
20260506164521 63 153 1.0 6.0 0.00 0.00 0.00 74 1018.8
20260506163024 62 189 3.0 5.0 0.00 0.00 0.00 74 1018.8
20260506161510 62 163 1.0 6.0 0.00 0.00 0.00 73 1018.8
20260506160019 62 209 2.0 5.0 0.00 0.00 0.00 74 1018.8
20260506154529 61 177 1.0 4.0 0.00 0.00 0.00 76 1018.9
20260506153023 61 142 2.0 4.0 0.00 0.00 0.00 78 1018.8
20260506151508 59 215 0.0 2.0 0.00 0.00 0.00 80 1018.8
20260506150013 58 360 1.0 2.0 0.00 0.00 0.00 82 1018.7
20260506144519 58 339 0.0 2.0 0.00 0.00 0.00 83 1018.6
20260506143021 56 360 0.0 2.0 0.00 0.00 0.00 83 1018.6
20260506141527 55 253 0.0 2.0 0.00 0.00 0.00 84 1018.5
20260506140015 54 295 0.0 2.0 0.00 0.00 0.00 85 1018.3
20260506134523 53 295 0.0 2.0 0.00 0.00 0.00 86 1018.1
20260506133022 53 311 0.0 2.0 0.00 0.00 0.00 86 1018.0
20260506131543 52 345 0.0 2.0 0.00 0.00 0.00 87 1017.9
20260506130036 52 289 0.0 2.0 0.00 0.00 0.00 87 1017.9
20260506124516 52 281 0.0 2.0 0.00 0.00 0.00 87 1017.8
20260506123021 52 292 0.0 2.0 0.00 0.00 0.00 87 1017.7
20260506121527 52 294 0.0 2.0 0.00 0.00 0.00 87 1017.7
20260506120028 52 271 0.0 2.0 0.00 0.00 0.00 86 1017.8
20260506114526 53 290 0.0 2.0 0.00 0.00 0.00 86 1017.8
20260506113022 53 276 0.0 2.0 0.00 0.00 0.00 86 1017.8
20260506111522 53 269 0.0 2.0 0.00 0.00 0.00 86 1017.7
20260506110024 53 277 0.0 2.0 0.00 0.00 0.00 86 1017.6
20260506104526 54 307 1.0 2.0 0.00 0.00 0.00 86 1017.4
20260506103037 54 267 0.0 2.0 0.00 0.00 0.00 86 1017.3
20260506101528 54 257 0.0 2.0 0.00 0.00 0.00 86 1017.3
20260506100006 54 271 0.0 2.0 0.00 0.00 0.00 86 1017.4
20260506094510 55 284 0.0 2.0 0.00 0.00 0.00 85 1017.3
20260506093016 56 37 0.0 2.0 0.00 0.00 0.00 86 1017.3
20260506091520 56 17 0.0 0.0 0.00 0.00 0.00 86 1017.3
20260506090023 56 17 0.0 1.0 0.00 0.00 0.00 85 1017.5
20260506084508 57 26 0.0 2.0 0.00 0.00 0.00 84 1017.6
20260506083011 57 32 0.0 2.0 0.00 0.00 0.00 84 1017.7
20260506081516 58 75 0.0 2.0 0.00 0.00 0.00 84 1017.7
20260506073010 58 75 0.0 1.0 0.00 0.00 0.00 83 1017.5
20260506071513 58 68 0.0 2.0 0.00 0.00 0.00 83 1017.3